Filtrer par Nom Sexe Groupe d'age
Grimpée de la Bonette (2.802m) 2017
RG. DOS. TEMPS CAT RG. POINTS
1 19 CARPENTIER JIMMY 01:14:55 Hom 1 0.00 AMPHION-LES-BAINS, France
2 8013 GARNIER SERGE 01:15:31 Hom 2 0.00 THEUS, FRANCE
3 263 VANDENPLAS JELLE 01:18:32 Hom 3 0.00 , BELGIQUE
4 8008 GEHRING JOSUé 01:20:24 Hom 4 0.00 COMMUGNY, SUISSE
5 8010 CARON VINCENT 01:20:50 Hom 5 0.00 , FRANCE
6 212 VERHOFSTADT JARNO 01:27:11 Hom 6 0.00 Aalst, Belgique
7 235 BERVOETS GERTJAN 01:29:38 Hom 7 0.00 LUMMEN, Belgique
8 8017 DE BAETS KRISTOF 01:31:42 Hom 8 0.00 JAUSIERS, FRANCE
9 245 VERDOODT GEERT 01:32:44 Hom 9 0.00 MERCHTEM, Belgique
10 264 VEELERS TOM 01:33:48 Hom 10 0.00 , BELGIQUE
11 179 VAN EWIJK PAUL 01:34:11 Hom 11 0.00 IJmuiden, Pays-Bas
12 250 VANDEN EYNDE DIMITRI 01:34:26 Hom 12 0.00 ST-AGATHA-RODE, BELGIQUE
13 120 TALPAERT CEDRIC 01:34:36 Hom 13 0.00 CORSEAUX, SUISSE
14 236 TRUYERS TIM 01:35:19 Hom 14 0.00 , BELGIQUE
15 242 VAN LANGENHOVEN STIJN 01:35:39 Hom 15 0.00 AFFLIGEM, BELGIQUE
16 221 BOON STIJN 01:36:43 Hom 16 0.00 HALLE, BELGIQUE
17 255 BERVOETS PETER 01:37:44 Hom 17 0.00 LUMMEN, Belgique
18 31 SWITSERS GUNTHER 01:38:42 Hom 18 0.00 LINT, BELGIQUE
19 237 VEESTRAETEN RUBEN 01:39:34 Hom 19 0.00 HEUSDEN-ZOLDER, Belgique
20 144 SEGUIN XAVIER 01:41:25 Hom 20 0.00 SAINT JULIEN LE CHATEL, France
21 247 VERLINDE MICHAEL 01:42:16 Hom 21 0.00 GULLEGEM, BELGIQUE
22 249 VANHAECKE VINCENT 01:42:28 Hom 22 0.00 BRUSSEL, BELGIQUE
23 193 DELISLE DE BAIZE MICHEL 01:43:35 Hom 23 0.00 CRUZILLES LES MEPILLAT, France
24 176 COTTON FABIEN 01:43:35 Hom 24 0.00 MARCQ EN BAROEUL, France
25 256 TOLLET JOHAN 01:43:46 Hom 25 0.00 BIERBEEK, BELGIQUE
26 8009 GIANNECCHINI NICOLETTA 01:45:10 Fe 1 0.00 VIAREGGIO, ITALIE
27 114 BEELEN ZJEF 01:45:37 Hom 26 0.00 ZONHOVEN, BELGIQUE
28 145 MINAULT PIERRE 01:47:17 Hom 27 0.00 LA MADELEINE, France
29 35 TAMSIN FILIP 01:50:51 Hom 28 0.00 Zedelgem, Belgium, Belgique
30 216 VANSTEENKISTE TOM 01:51:04 Hom 29 0.00 AALST, BELGIQUE
31 220 DELEAU DANNY 01:51:27 Hom 30 0.00 HOBOKEN, BELGIQUE
32 262 VERLINDEN BEN 01:53:47 Hom 31 0.00 , BELGIQUE
33 214 VILLE BART 01:53:47 Hom 32 0.00 TERNAT, Belgique
34 8002 RENAULT AURELIEN 01:56:24 Hom 33 0.00 ALIZAY, France
35 146 HARMEGNIES LUC 01:57:03 Hom 34 0.00 MARCQ EN BAROEUL, France
36 222 HEYVAERT WILLY 01:59:35 Hom 35 0.00 DENDERWINDEKE, BELGIQUE
37 8007 MORITZ GUY 02:02:00 Hom 36 0.00 AMSTERDAM, Pays-Bas
38 251 THEUNIS STEFAAN 02:02:02 Hom 37 0.00 PAAL, BELGIQUE
39 240 DE BRUYN JAN 02:03:32 Hom 38 0.00 HERSELT, BELGIQUE
40 8012 FERRIER BERNARD 02:04:56 Hom 39 0.00 , FRANCE
41 215 PROVOST MARCIA 02:09:26 Fe 2 0.00 TERNAT, BELGIQUE
42 254 VANDEBROEK BENNY 02:09:26 Hom 40 0.00 HASSELT, BELGIQUE
43 234 GIEBENS IVAN 02:11:54 Hom 41 0.00 Antwerpen, Belgique
44 8004 DERVILLEZ JEAN-PIERRE 02:12:12 Hom 42 0.00 LE SAUZE DU LAC, FRANCE
45 253 QUANTEN RUDDI 02:12:45 Hom 43 0.00 SINT-HUIBRECHTS-LILLE, BELGIQUE
46 218 JANSSEN LEO 02:16:26 Hom 44 0.00 MAASEIK, BELGIQUE
47 8014 ? ? 02:16:41 J 1 0.00 ,
48 248 VERLINDE MARINO 02:18:17 Hom 45 0.00 KORTRIJK, BELGIQUE
49 257 VAN BOSSUYT BRAM 02:19:06 Hom 46 0.00 KORBEEK-LO, BELGIQUE
50 243 VAN LANGENHOVEN FRANCOIS 02:19:27 Hom 47 0.00 , BELGIQUE
51 219 MKICHRI HAYTEM 02:19:36 Hom 48 0.00 ST STEVENS, BELGIQUE
52 230 VAN SCHUERBEEK DANY 02:22:35 Hom 49 0.00 NIEUWERKERKEN, Belgique
53 246 THEUNIS JOHAN 02:24:18 Hom 50 0.00 ZONHOVEN, BELGIQUE
54 239 VITS DIMITRI 02:25:23 Hom 51 0.00 , BELGIQUE
55 241 VAN DEN BERGH WIM 02:26:06 Hom 52 0.00 HERSELT, BELGIQUE
56 252 THEUNIS ERWIN 02:26:42 Hom 53 0.00 BERINGEN, BELGIQUE
57 267 NAEMS TIM 02:28:32 Hom 54 0.00 , BELGIQUE
58 266 HAES PASCAL 02:29:28 Hom 55 0.00 , BELGIQUE
59 217 UYTTERSPROT WESLEY 02:36:00 Hom 56 0.00 DENDERHOUTEM, BELGIQUE
60 231 VAN DE VELDE WIM 02:36:01 Hom 57 0.00 NIEUWERKERKEN, Belgique
61 8019 AELLEBREKERS CASPER 02:39:46 Hom 58 0.00 , Pays-Bas
62 225 HENDERICKX ANN 02:42:07 Fe 3 0.00 SCHOTEN, BELGIQUE
63 226 TAEYMANS KAREN 02:42:08 Fe 4 0.00 , BELGIQUE
64 229 VANDERPOORTEN SASKIA 02:42:08 Fe 5 0.00 DRONGEN, BELGIQUE
65 211 DE BACKER JOHAN 02:47:01 Hom 59 0.00 NIEUWERKERKEN, Belgique
66 228 LEYS MARIA 02:47:17 Fe 6 0.00 DRONGEN, Belgique
67 8016 STAROSTA THOMAS 02:48:39 Hom 60 0.00 , ALLEMAGNE
68 223 VERMEULEN JULIEN 03:06:12 Hom 61 0.00 VILVOORDE, BELGIQUE
69 224 VANRIJDT DIRK 03:06:43 Hom 62 0.00 ZAVENTEM, BELGIQUE
70 265 HOREMANS GUIDO 03:06:49 Hom 63 0.00 , BELGIQUE
71 8023 CORMELISSEN JEROEN 03:12:57 Hom 64 0.00 , Pays-Bas
72 238 WAUTERS WIM 03:20:55 Hom 65 0.00 , BELGIQUE

GRANFONDO VOSGES

Nous sommes en contact depuis plusieurs jours avec les collectivités locales afin d'échanger sur la tenue de la Granfondo Vosges 2020 et voici ce qu'il en ressort :

-Vu la situation liée au Covid-19
-Vu le calendrier de fin de saison des cyclosportives.
-Vu le calendrier de la commune de La Bresse qui nous accueille.

Nous allons reporter La Granfondo Vosges au 27 Septembre 2020.

Pour les personnes déjà inscrites, vous n'avez rien à faire, votre inscription est automatiquement reportée.

Dans le cas où vous ne pourriez pas vous rendre disponibles à cette date là, vous pouvez nous le signaler et nous pourrons vous indiquer les conditions pour reporter votre inscription pour la Granfondo Vosges 2021.

Prenez soin de vous !
TOP